Location: Newark
(51.2625°N, 13.3939°E)
Time: 08:01:43
(UTC+00:00)

Transit 2A Rocket - Pass Details

Date: 20 January 2021
Orbit: 594 x 909 km, 66.7° (Epoch: 24 February)

Event Time Altitude Azimuth Distance (km) Brightness Sun altitude
Rises 17:17:44 0° 313° (NW) 3,085 8.6 -15.5°
Reaches altitude 10° 17:21:28 10° 341° (NNW) 2,094 7.4 -16.0°
Maximum altitude 17:23:38 13° 9° (N) 1,862 6.8 -16.4°
Enters shadow 17:24:38 12° 22° (NNE) 1,890 6.7 -16.5°
